www.pogodaiklimat.ru

Погода и климат >> Архив погоды >> Россия >> Иркутская область >> Преображенка


ПОГОДА в Преображенке

  • Прогноз погоды в Преображенке
  • Монитор погоды в Преображенке

АРХИВ ПОГОДЫ в Преображенке

Время (UTC), дата Ветер
(напр.,м/с)
 
Видим.   Явления Облачность Т
(С)
Тd
(С)
f
(%)
Тe
(С)
Тes
(С)
Комфортность P
(гПа)
Po
(гПа)
Тmin
(С)
Tmax
(С)
R
(мм)
R24
(мм)
S
(см)
21 11.09 ЮВ 1 н/о 10/10 600 м
[Cb cap]
+7.2 +6.3 94 +6 +6 1003.8 968.6
00 12.09 Ю 2 50 км 9/9 600 м
[Cb cap]
+8.0 +6.7 91 +6 +6 1001.7 966.6 +7.1
03 12.09 Ю 3 50 км 10/10 600 м
[Cb cap]
+11.3 +6.2 71 +10 +10 1000.8 966.2
06 12.09 З 2 50 км {ливн. осадки} 9/8 600 м
[Cb cap Ci fib]
+11.6 +1.5 50 +11 +12 1001.3 966.6
09 12.09 ЮЗ 4
{10}
50 км {ливн. осадки} 9/9 600 м
[Cb cap]
+10.1 +1.5 55 +8 +8 1002.7 967.8
12 12.09 З 3
{10}
н/о слаб. ливневой дождь 9/9 600 м
[Cb cap]
+3.4 +0.2 80 -0 -0 1008.0 972.1 +13.2 0.8
15 12.09 ЮЗ 1 н/о 3/3 600 м
[Sc]
-0.7 -2.5 88 -3 -3 1011.2 974.7
18 12.09 Ю 1 н/о ясно -2.7 -3.7 93 -5 -5 1012.0 975.2
21 12.09 ЮВ 2 н/о 9/9 600 м
[Cb cap]
-2.5 -3.5 93 -7 -7 1011.1 974.3
00 13.09 Ю 2 50 км 9/9 600 м
[Sc]
-1.4 -2.6 92 -5 -5 1009.7 973.1 -3.0
03 13.09 Ю 5 50 км 9/5 600 м
[Cb cap Cs]
+3.9 -4.1 56 -1 +1 1007.1 971.2
06 13.09 Ю 5-10
{10}
4000 м слаб. ливневой снег 10/10 300 м
[Cb cap]
+2.8 -2.4 69 -2 -2 1004.9 969.0
09 13.09 ЮЗ 4
{10}
2000 м ливневой снег 10/10 300 м
[Cb cap]
+0.3 -0.3 96 -5 -5 1002.8 966.7
12 13.09 ЮЗ 2 н/о {ливн. осадки} 3/1 600 м
[Cb cap Ci fib]
-1.3 -2.2 94 -5 -5 1004.3 967.9 +4.5 3
15 13.09 ЮВ 1 н/о 6/0
[Ci fib]
-3.3 -4.7 90 -6 -6 1005.0 968.3
18 13.09 ЮВ 1 н/о 10/0
[Cs]
-3.8 -5.0 91 -6 -6 1004.5 967.8
21 13.09 Ю 1 н/о 9/4 600 м
[Cb cap Ac As Cs]
-3.2 -4.1 93 -6 -6 1003.2 966.5
00 14.09 штиль 0 50 км 10/8 600 м
[Cb cap As op]
-3.3 -3.6 98 -5 -5 1002.6 966.0 -4.1
03 14.09 С 1 50 км 9/9 600 м
[Cb cap]
+1.1 -0.9 86 -1 -0 1002.3 966.4
06 14.09 С 1 50 км 8/8 600 м
[Cb cap]
+2.3 -3.3 66 +1 +2 1003.4 967.5
09 14.09 З 2 50 км 6/4 600 м
[Cu med, cong Ci fib]
+4.5 -6.4 45 +3 +3 1004.6 969.0
12 14.09 З 2 н/о 10/5 600 м
[Cb cap Ac As]
+1.9 -4.9 61 -1 -1 1006.6 970.5 +5.0
15 14.09 ЮЗ 5 н/о слаб. ливневой снег 10/10 600 м
[Cb cap]
-0.1 -1.3 92 -6 -6 1006.9 970.6
18 14.09 З 5 н/о слаб. ливневой снег 10/10 600 м
[Cb cap]
-0.1 -0.1 100 -7 -7 1006.3 970.0
21 14.09 З 5
{10}
н/о слаб. ливневой снег 10/10 600 м
[Cb cap]
+0.5 -0.1 96 -6 -6 1007.0 970.7
00 15.09 З 5 50 км {ливн. осадки} 10/8 300 м
[Cb cap Ac As]
+1.1 -0.3 90 -5 -5 1007.2 971.1 -0.4 2 2
03 15.09 З 3 50 км 10/6 600 м
[Cb cap Ac As]
+2.4 -0.6 81 -2 -1 1007.7 971.7
06 15.09 З 2 50 км в посл. час ливневой дождь 10/8 300 м
[Cb cap Ac As]
+3.1 +0.5 83 0 0 1007.8 971.9
09 15.09 З 3 50 км 10/10 300 м
[Cb cap]
+4.5 -1.2 66 +1 +1 1007.6 971.9
12 15.09 Ю 3 н/о в посл. час ливневой дождь 10/8 300 м
[Cb cap Ac As]
+1.9 0.0 87 -2 -2 1007.9 971.9 +4.9 0.3
15 15.09 Ю 1 н/о в посл. час ливневой дождь 10/6 600 м
[Cb cap As trans]
+1.2 +0.4 94 -1 -1 1007.8 971.7
18 15.09 Ю 1 н/о слаб. ливневой снег 10/10 600 м
[Cb cap]
+0.7 +0.2 96 -1 -1 1007.4 971.1
21 15.09 ЮЗ 1 н/о в посл. час ливневой снег 10/10 600 м
[Cb cap]
+0.5 -0.3 94 -2 -2 1007.7 971.4
00 16.09 З 1 50 км {ливн. осадки} 10/6 300 м
[Cb cap Ac As]
+1.1 0.0 92 -1 -1 1008.8 972.6 +0.4 0.7
03 16.09 З 2 50 км 9/9 600 м
[Cb cap]
+2.8 -3.7 62 0 +1 1010.3 974.2
06 16.09 СЗ 2 50 км 10/10 600 м
[Cb cap]
+4.2 -2.3 63 +2 +2 1012.5 976.6
09 16.09 СЗ 1 50 км 10/10 600 м
[Cb cap]
+3.7 -1.9 67 +3 +3 1015.2 979.0
12 16.09 З 1 н/о 6/6 600 м
[Cb cap]
+2.3 -3.3 66 +1 +1 1017.7 981.4 +4.6
15 16.09 ЮЗ 1 50 км 10/10 600 м
[Cb cap]
+1.7 -2.7 73 0 0 1019.7 983.1
18 16.09 Ю 1 н/о 9/9 600 м
[Cb cap]
+1.5 -2.0 78 -0 -0 1020.8 984.2
21 16.09 Ю 1 н/о 9/9 600 м
[Cb cap]
+0.2 -2.5 82 -2 -2 1021.4 984.6
00 17.09 штиль 0 50 км 10/10 600 м
[Cb cap]
+1.8 -1.6 78 +1 +1 1022.2 985.5 +0.2
03 17.09 ЮЗ 2 50 км 9/1 600 м
[Sc Ac und Cs]
+5.9 -2.0 57 +4 +6 1021.7 985.6
06 17.09 З 5 50 км 10/8 600 м
[Cb cap Cs]
+7.6 -3.1 47 +4 +5 1020.8 984.9
09 17.09 ЮЗ 3 20 км слаб. ливневой дождь 10/8 600 м
[Cb cap As op]
+4.9 +0.2 72 +2 +2 1020.7 984.6
12 17.09 Ю 2 н/о слаб. ливневой дождь 10/8 600 м
[Cb cap As op]
+2.7 +1.9 94 -1 -1 1020.4 984.0 +8.5 2
15 17.09 ЮВ 1 н/о слаб. ливневой дождь 10/10 600 м
[Cb cap]
+2.5 +2.0 96 +1 +1 1019.1 982.7
18 17.09 ЮВ 1 н/о слаб. ливневой дождь 10/10 600 м
[Cb cap]
+2.9 +2.6 98 +1 +1 1018.3 982.0
21 17.09 Ю 1 н/о слаб. ливневой дождь 10/10 600 м
[Cb cap]
+3.6 +3.1 97 +2 +2 1016.5 980.3
00 18.09 ЮВ 1 50 км {ливн. осадки} 10/6 600 м
[Cb cap As op]
+4.5 +4.0 97 +3 +3 1014.3 978.4 +2.5 4
03 18.09 Ю 1 10 км слаб. ливневой дождь 10/10 300 м
[Cb cap]
+6.0 +5.5 97 +5 +5 1012.3 976.6
06 18.09 штиль 0 50 км {ливн. осадки} 10/10 300 м
[Cb cap]
+9.7 +9.3 97 +9 +9 1010.3 975.2
09 18.09 штиль 0 50 км в посл. час ливневой дождь 10/6 600 м
[Cb cap Ac As]
+11.3 +10.5 95 +11 +11 1008.6 973.8
12 18.09 штиль 0 н/о слаб. ливневой дождь 10/8 600 м
[Cb cap Ac As]
+10.2 +10.2 100 +9 +9 1007.8 972.9 +11.7 3
15 18.09 С 3 н/о слаб. ливневой дождь 10/10 300 м
[Cb cap]
+5.0 +4.3 95 +1 +1 1009.5 973.8
18 18.09 СВ 2 н/о слаб. ливневой дождь 10/10 300 м
[Cb cap]
+3.3 +2.5 94 0 0 1009.2 973.2

 

Местоположение метеостанции Преображенка (Иркутская область, Россия): широта 60.05 долгота 108.00 высота над уровнем моря 295 м.

В архиве по умолчанию представлена погода в Преображенке за последнюю неделю. Архивные данные за месяц целиком и за предыдущие месяцы, начиная с января 2011 года, Вы можете получить, выбрав интересующий диапазон дат из раскрывающегося списка и нажав кнопку "Ввод!".


*Определитесь, кто Вы:
робот инопланетянин человек

Внимание! Время в таблицах - всемирное. Для получения местного времени необходимо прибавить поправку, которая равна 8 ч.

Смотрите также архив погоды в соседних городах и на ближайших метеорологических станциях:

Погода в Ербогачене (Иркутская область, Россия) (136 км)
Погода в Ике (Иркутская область, Россия) (137 км)
Погода в Комаке (Якутия, Россия) (206 км)
Погода в Токме (Иркутская область, Россия) (241 км)
Погода в Киренске (Иркутская область, Россия) (254 км)
Погода в Витиме (Якутия, Россия) (261 км)
Погода в Чемдальске (Красноярский край, Россия) (267 км)
Погода в Ванаваре (Эвенкия, Россия) (317 км)
Погода в Туой-Хае (Якутия, Россия) (324 км)
Погода в Маме (Иркутская область, Россия) (334 км)

Пояснения к столбцам:

Ветер - указаны скорость ветра в м/с - средняя за 10 мин, порывы в срок и между сроками (в фигурных скобках) и направление, откуда дует ветер: С - северный, СВ - северо-восточный, В - восточный, ЮВ - юго-восточный, Ю - южный, ЮЗ - юго-западный, З - западный, СЗ - северо-западный.
Видимость - горизонтальная дальность видимости в метрах или километрах. При видимости от 1 до 10 км при отсутствии осадков обычно наблюдается дымка, при ухудшении видимости до 1 км и менее - туман. В сухую погоду видимость может ухудшаться дымом, пылью или мглою.
Явления - указаны атмосферные явления, наблюдавшиеся в срок или в последний час перед сроком; фигурными скобками обозначены явления, наблюдавшиеся между сроками (за 1-3 часа до срока); квадратными скобками обозначены град или гололедные отложения с указанием их диаметра в мм.
Облачность - указаны через наклонную черту общая и нижняя облачность в баллах и высота нижней границы облаков в метрах; квадратными скобками обозначены формы облаков: Ci - перистые, Cs - перисто-слоистые, Cc - перисто-кучевые, Ac - высококучевые, As - высокослоистые, Sc - слоисто-кучевые, Ns - слоисто-дождевые, Cu - кучевые, Cb - кучево-дождевые. Подробнее классификацию облаков см. в Атласе облаков (PDF).
T - Температура воздуха - температура, измеренная на высоте 2 м над землей.
Td - Температура точки росы - температура, при понижении до которой содержащийся в воздухе водяной пар достигнет насыщения.
f - Относительная влажность воздуха - влажноcть воздуха, измеренная на высоте 2 м над землей.
Te - Эффективная температура - температура, которую ощущает одетый по сезону человек в тени. Характеристика душности погоды. При расчете учитывается влияние влажности воздуха и скорости ветра на теплоощущения человека.
Tes - Эффективная температура на солнце - температура, которую ощущает человек, с поправкой на солнечный нагрев. Характеристика знойности погоды. Зависит от высоты солнца над горизонтом, облачности и скорости ветра. Ночью, в пасмурную погоду, а также при ветре 12 м/с и более поправка равна нулю.
P - Атмосферное давление - приведенное к уровню моря атмосферное давление.
Po - Атмосферное давление - измеренное на уровне метеостанции атмосферное давление.
Tmin - Минимальная температура - минимум температуры воздуха на высоте 2 м над землей.
Tmax - Максимальная температура - максимум температуры воздуха на высоте 2 м над землей.
R - Количество осадков - Количество выпавших осадков за период времени, мм. При наведении курсора мыши на число - период времени, за который выпало указанное количество осадков.
R24 - Количество осадков - Количество выпавших осадков за 24 часа, мм.
S - Снежный покров - Высота снежного покрова, см. При наведении курсора мыши на число - состояние снежного покрова и степень покрытия местности в баллах.